Location: Unspecified
(0.0000°N, 0.0000°E)
Time: 11:23:16
(UTC+00:00)

Transit 2A - Pass Details

Date: 22 November 2019
Orbit: 602 x 957 km, 66.7° (Epoch: 07 December)

Event Time Altitude Azimuth Distance (km) Brightness Sun altitude
Rises 09:55:42 0° 205° (SSW) 3,525 9.5 56.3°
Reaches altitude 10° 09:58:19 10° 207° (SSW) 2,539 8.9 56.8°
Maximum altitude 10:04:09 67° 289° (WNW) 891 7.0 58.0°
Drops below altitude 10° 10:09:24 10° 11° (N) 2,294 8.4 59.0°
Sets 10:11:41 0° 14° (NNE) 3,161 9.0 59.4°
